Regional Weather Roundup
Issued by NWS

Home | Current Version | Previous Version | Graphics & Text | Print | Product List | Glossary On
Versions: 1 2 3 4 5 6 7 8 9 10 11 12 13 14 15 16 17 18 19 20 21 22 23 24 25 26 27 28 29 30 31 32 33 34 35 36 37 38 39 40 41 42 43 44 45 46 47 48 49 50
000
ASUS44 KMEG 210310
RWRTN
TENNESSEE HOURLY STATE WEATHER ROUNDUP
NATIONAL WEATHER SERVICE MEMPHIS TN
1000 PM CDT MON OCT 20 2014

TNZ002-004-019-021-049-052-054-088>092-210400-
WEST TENNESSEE

CITY           SKY/WX    TMP DP  RH WIND       PRES   REMARKS
MEMPHIS INTL   CLEAR     58  52  80 CALM      30.04R
NWS MEMPHIS      N/A     55 N/A N/A MISG        N/A
JACKSON        CLEAR     56  51  84 S5        30.03R
DYERSBURG      PTCLDY    61  45  55 W7        30.03R
UNION CITY     MOCLDY    59  54  82 CALM      30.00R
PARIS          MOCLDY    55  50  82 SW3       30.01S
HUNTINGDON     PTCLDY    57  50  78 CALM      30.02R
LEXINGTON      CLEAR     50  48  93 CALM      30.02R
SAVANNAH       CLEAR     50  50 100 CALM      30.05R
$$

TNZ008-025-027-028-033-062-065-066-210400-
NORTH MIDDLE TENNESSEE

CITY           SKY/WX    TMP DP  RH WIND       PRES   REMARKS
NASHVILLE      CLEAR     53  49  86 S5        30.02R
CLARKSVILLE    PTCLDY    57  52  83 SW5       30.00R
SMYRNA         CLEAR     48  47  97 CALM      30.03S
COOKEVILLE     CLEAR     46  46 100 CALM      30.02S
CROSSVILLE     CLEAR     51  45  79 W6        30.04R
$$

TNZ061-075-076-078-094-096-097-210400-
SOUTH MIDDLE TENNESSEE

CITY           SKY/WX    TMP DP  RH WIND       PRES   REMARKS
FAYETTEVILLE   CLEAR     50  46  87 MISG      30.04S
TULLAHOMA      CLEAR     46  45  93 CALM      30.05R
WINCHESTER     CLEAR     50  48  93 CALM      30.05R
MCMINNVILLE    CLEAR     48  48 100 CALM      30.04R
COLUMBIA       CLEAR    N/A N/A N/A CALM      30.02R
SHELBYVILLE    CLEAR     48  48 100 CALM      30.05R
$$

TNZ017-018-042-046-047-210400-
NORTHEAST TENNESSEE

CITY           SKY/WX    TMP DP  RH WIND       PRES   REMARKS
TRI CITIES     CLOUDY    53  50  89 CALM      30.01S
ELIZABETHTON   MOCLDY    50  48  93 CALM      30.02S
$$

TNZ012-013-036-069-073-074-210400-
CENTRAL EAST TENNESSEE

CITY           SKY/WX    TMP DP  RH WIND       PRES   REMARKS
KNOXVILLE      MOCLDY    56  51  84 SW7       30.01S
OAK RIDGE      PTCLDY    55  51  86 CALM      30.03S
GATLINBURG     MOCLDY    54  48  82 CALM      30.02R
MORRISTOWN     PTCLDY    54  52  94 CALM      30.02R
$$

TNZ083-085-099-210400-
SOUTHEAST TENNESSEE

CITY           SKY/WX    TMP DP  RH WIND       PRES   REMARKS
CHATTANOOGA    PTCLDY    56  52  86 CALM      30.04R
$$

SKY/WX REPORTED AS FAIR MEANS FEW OR NO CLOUDS BELOW
12 THOUSAND FEET.



USA.gov is the U.S. government's official web portal to all federal, state and local government web resources and services.